User: anonymous   Login
Location: Asarope
(8.2500°N, 4.4833°E)
Time: 00:30:46
(UTC+00:00)
Language:

ALOS - Orbit

View from above orbital plane
View from above orbital plane
View from above satellite
View from above satellite

Ground track
Ground track

The orbit data is extracted from the following two-line orbital elements,

1 28931U 06002A   21167.80493449  .00000117  00000-0  31574-4 0  9992
2 28931  97.8863 142.5747 0001980  51.0858 309.0522 14.62846781820964
Epoch (UTC): 16 June 2021 19:19:06
Eccentricity: 0.0001980
inclination: 97.8863°
perigee height: 682 km
apogee height: 685 km
right ascension of ascending node: 142.5747°
argument of perigee: 51.0858°
revolutions per day: 14.62846781
mean anomaly at epoch: 309.0522°
orbit number at epoch: 82096

The dashed part of the orbit path shows where the satellite is in the earth's shadow,  

DLR